Weather History for LFBP - November, 2012

Change the Weather History Date:

Sunday, November 18, 2012

  Actual Average Record
Temperature  
Mean Temperature 54 °F -  
Max Temperature 57 °F 52 °F 68 °F (2011)
Min Temperature 50 °F 37 °F 24 °F (2007)
Degree Days  
Heating Degree Days 12    
Growing Degree Days 4 (Base 50)    
Moisture  
Dew Point 51 °F    
Average Humidity 94    
Maximum Humidity 100    
Minimum Humidity 88    
Precipitation  
Precipitation 0.00 in - - ()
Sea Level Pressure  
Sea Level Pressure 29.88 in    
Wind  
Wind Speed 3 mph ()    
Max Wind Speed 12 mph    
Max Gust Speed -    
Visibility 5.2 miles    
Events Rain    
Averages and records for this station are not official NWS values.
T = Trace of Precipitation, MM = Missing Value Source: Averaged Metar Reports

Daily Weather History Graph

Daily Weather History Graph

Search for Another Location

Airport or City:

Trip Planner

Search our weather history database for the weather conditions in past years. The results will help you decide how hot, cold, wet, or windy it might be!

Date:

Astronomy

Nov. 18, 2012 Rise Set
Actual Time 7:59 AM CET 5:34 PM CET
Civil Twilight 7:28 AM CET 6:05 PM CET
Nautical Twilight 6:53 AM CET 6:40 PM CET
Astronomical Twilight 6:19 AM CET 7:13 PM CET
Moon 12:14 PM CET (11/18) 10:38 PM CET (11/18)
Length of Visible Light 10h 37m
Length of Day
9h 35m
Waxing Crescent, 27% of the Moon is Illuminated
Nov 18
Waxing Crescent
Nov 20
First Quarter
Nov 28
Full
Dec 6
Last Quarter
Dec 13
New

Hourly Weather History & Observations

Time (CET) Temp. Dew Point Humidity Pressure Visibility Wind Dir Wind Speed Gust Speed Precip Events Conditions
12:00 AM 50.0 °F 48.2 °F 94% 29.77 in 6.2 mi Calm Calm - N/A   Overcast
12:30 AM 50.0 °F 48.2 °F 94% 29.77 in 5.0 mi ESE 3.5 mph - N/A   Overcast
1:00 AM 50.0 °F 48.2 °F 94% 29.77 in 4.3 mi ESE 3.5 mph - N/A   Overcast
1:30 AM 50.0 °F 48.2 °F 94% 29.77 in 5.0 mi SE 1.2 mph - N/A   Overcast
2:00 AM 50.0 °F 48.2 °F 94% 29.77 in 4.3 mi Calm Calm - N/A   Overcast
2:30 AM 50.0 °F 48.2 °F 94% 29.77 in 4.3 mi SE 2.3 mph - N/A   Overcast
3:00 AM 50.0 °F 48.2 °F 94% 29.77 in 4.3 mi WSW 2.3 mph - N/A   Overcast
3:30 AM 50.0 °F 48.2 °F 94% 29.80 in 3.7 mi East 1.2 mph - N/A   Overcast
4:00 AM 50.0 °F 48.2 °F 94% 29.77 in 4.3 mi Calm Calm - N/A   Overcast
4:30 AM 50.0 °F 50.0 °F 100% 29.80 in 4.3 mi Calm Calm - N/A   Overcast
5:00 AM 50.0 °F 48.2 °F 94% 29.80 in 3.7 mi Variable 1.2 mph - N/A   Overcast
5:30 AM 50.0 °F 50.0 °F 100% 29.80 in 3.1 mi SE 2.3 mph - N/A Rain Light Rain
6:00 AM 50.0 °F 50.0 °F 100% 29.80 in 3.1 mi Calm Calm - N/A   Overcast
6:30 AM 50.0 °F 50.0 °F 100% 29.83 in 3.1 mi SE 2.3 mph - N/A Rain Light Rain
7:00 AM 51.8 °F 50.0 °F 94% 29.83 in 2.5 mi SE 3.5 mph - N/A   Mostly Cloudy
7:30 AM 51.8 °F 50.0 °F 94% 29.83 in 2.8 mi SE 3.5 mph - N/A   Mostly Cloudy
8:00 AM 51.8 °F 50.0 °F 94% 29.83 in 6.2 mi Calm Calm - N/A   Mostly Cloudy
8:30 AM 51.8 °F 50.0 °F 94% 29.83 in 6.2 mi Calm Calm - N/A   Mostly Cloudy
9:00 AM 51.8 °F 51.8 °F 100% 29.86 in 6.2 mi SE 1.2 mph - N/A   Scattered Clouds
9:30 AM 53.6 °F 51.8 °F 94% 29.86 in 6.2 mi Calm Calm - N/A   Mostly Cloudy
10:00 AM 55.4 °F 51.8 °F 88% 29.86 in 6.2 mi SE 3.5 mph - N/A   Scattered Clouds
10:30 AM 57.2 °F 53.6 °F 88% 29.86 in 6.2 mi Variable 1.2 mph - N/A   Scattered Clouds
11:00 AM 57.2 °F 53.6 °F 88% 29.89 in 6.2 mi Variable 3.5 mph - N/A   Mostly Cloudy
11:30 AM 57.2 °F 53.6 °F 88% 29.89 in 6.2 mi West 5.8 mph - N/A   Mostly Cloudy
12:00 PM 57.2 °F 53.6 °F 88% 29.89 in 6.2 mi West 9.2 mph - N/A   Mostly Cloudy
12:30 PM 57.2 °F 53.6 °F 88% 29.89 in 6.2 mi West 9.2 mph - N/A   Mostly Cloudy
1:00 PM 55.4 °F 53.6 °F 94% 29.89 in 6.2 mi WSW 6.9 mph - N/A Rain Light Rain
1:30 PM 55.4 °F 53.6 °F 94% 29.89 in 3.7 mi West 8.1 mph - N/A Rain Light Rain
2:00 PM 53.6 °F 53.6 °F 100% 29.89 in 1.9 mi West 11.5 mph - N/A Rain Rain
2:30 PM 55.4 °F 53.6 °F 94% 29.89 in 3.7 mi West 11.5 mph - N/A Rain Light Rain
3:00 PM 55.4 °F 53.6 °F 94% 29.89 in 6.2 mi West 8.1 mph - N/A   Mostly Cloudy
3:30 PM 55.4 °F 51.8 °F 88% 29.89 in 6.2 mi West 11.5 mph - N/A   Mostly Cloudy
4:00 PM 55.4 °F 51.8 °F 88% 29.92 in 5.0 mi West 11.5 mph - N/A   Mostly Cloudy
4:30 PM 53.6 °F 51.8 °F 94% 29.92 in 6.2 mi West 10.4 mph - N/A   Mostly Cloudy
5:00 PM 53.6 °F 51.8 °F 94% 29.95 in 6.2 mi West 8.1 mph - N/A Rain Light Rain
5:30 PM 53.6 °F 51.8 °F 94% 29.95 in 6.2 mi West 5.8 mph - N/A Rain Light Rain
6:00 PM 53.6 °F 50.0 °F 88% 29.95 in 6.2 mi WNW 6.9 mph - N/A   Mostly Cloudy
6:30 PM 53.6 °F 50.0 °F 88% 29.98 in 6.2 mi WNW 6.9 mph - N/A   Mostly Cloudy
7:00 PM 51.8 °F 50.0 °F 94% 29.98 in 6.2 mi WNW 11.5 mph - N/A Rain Light Rain
7:30 PM 51.8 °F 50.0 °F 94% 29.98 in 6.2 mi West 5.8 mph - N/A   Overcast
8:00 PM 51.8 °F 50.0 °F 94% 29.98 in 6.2 mi West 8.1 mph - N/A   Overcast
8:30 PM 51.8 °F 50.0 °F 94% 30.01 in 6.2 mi WSW 9.2 mph - N/A   Overcast
9:00 PM 51.8 °F 50.0 °F 94% 30.01 in 6.2 mi SW 6.9 mph - N/A   Overcast
9:30 PM 50.0 °F 50.0 °F 100% 30.01 in 6.2 mi SW 5.8 mph - N/A   Overcast
10:00 PM 50.0 °F 50.0 °F 100% 30.01 in 6.2 mi SW 5.8 mph - N/A   Overcast
10:30 PM 50.0 °F 50.0 °F 100% 30.01 in 6.2 mi SW 6.9 mph - N/A   Mostly Cloudy
11:00 PM 50.0 °F 48.2 °F 94% 30.01 in 6.2 mi SW 5.8 mph - N/A   Overcast
11:30 PM 50.0 °F 48.2 °F 94% 30.01 in 6.2 mi WSW 5.8 mph - N/A   Overcast